Content
SEND FEEDBACK

Daily
Averages
Monthly
Summary
United States of America

FORT HARRISON, MONTANA


Home > North America > United States > Montana
Elevation: 4001 feet     Latitude: 46 36N     Longitude: 112 00W

WEATHER
 
SELECT A DAY
Number of Records: 186,711;   Date Range: 1/1/95 - 7/29/14
 
SHARE

PRINT THIS DATA

[ ← Previous Day ]
WEATHER ALMANAC - JANUARY 31, 2013
[ Next Day → ]
[ °C ]   °F
Weather ElementAverageHighLow
Temperature39.7 °F42.1 °F (12:53 pm)30 °F (4:53 am)
Dewpoint26.3 °F28.9 °F (7:53 pm)23 °F (3:53 am)
Humidity58.8 %75 % (4:53 am)55 % (5:53 am)
Barometer30.14 in30.17 in (4:53 am)30.06 in (10:53 am)
Wind Speed13.4 mph21.9 mph (10:53 am)
Wind Gust31.1 mph (8:53 pm)
Weather ElementAverage
Visibility10 mi
Wind DirectionWSW (239.6 °)

Weather ElementTotal
Precipitation---
Heating Degree Days29 (Base 65)
Averaged from 23 records on January 31, 2013
WEATHER CONDITIONS BREAKOUT
WIND DIRECTION BREAKOUT
WEATHER BY HOUR - JANUARY 31, 2013
[ °C ]   °F
Local TimeTemperatureDewpointHumidityBarometerVisibilityWind DirectionWind SpeedGust SpeedPrecipitationEventsConditions
1:53 AM37.9 °F25.0 °F60 %30.09 in10.0 miWest (270°)16.1 mph26.5 mphMostly Cloudy
2:53 AM37.9 °F26.1 °F62 %30.12 in10.0 miWest (270°)16.1 mphOvercast
3:53 AM32.0 °F23.0 °F69 %30.14 in10.0 miNorth (10°)4.6 mph18.4 mphOvercast
4:53 AM30.0 °F23.0 °F75 %30.17 in10.0 miENE (70°)4.6 mphOvercast
5:53 AM39.9 °F25.0 °F55 %30.13 in10.0 miWNW (290°)20.7 mph27.6 mphOvercast
6:53 AM39.9 °F25.0 °F55 %30.14 in10.0 miWNW (290°)20.7 mph26.5 mphOvercast
7:53 AM39.9 °F25.0 °F55 %30.16 in10.0 miWNW (290°)18.4 mphOvercast
8:53 AM39.9 °F26.1 °F58 %30.16 in10.0 miWest (280°)15.0 mphOvercast
9:53 AM41.0 °F26.1 °F55 %30.16 in10.0 miWest (270°)19.6 mph25.3 mphOvercast
10:53 AM41.0 °F26.6 °F57 %30.06 in10.0 miWest (280°)21.9 mph27.6 mphOvercast
11:53 AM41.0 °F26.1 °F55 %30.16 in10.0 miWest (270°)15.0 mph25.3 mphOvercast
12:53 PM42.1 °F27.0 °F55 %30.15 in10.0 miWest (270°)11.5 mphOvercast
1:53 PM42.1 °F27.0 °F55 %30.13 in10.0 miWest (280°)18.4 mph24.2 mphScattered Clouds
2:53 PM42.1 °F27.0 °F55 %30.13 in10.0 miWest (270°)15.0 mphOvercast
3:53 PM42.1 °F27.0 °F55 %30.15 in10.0 miWest (270°)16.1 mphOvercast
4:53 PM39.9 °F28.0 °F63 %30.17 in10.0 miWSW (240°)8.1 mphOvercast
5:53 PM41.0 °F27.0 °F57 %30.14 in10.0 miVariable3.5 mphScattered Clouds
6:53 PM41.0 °F28.0 °F60 %30.13 in10.0 miWest (270°)9.2 mph17.3 mphMostly Cloudy
7:53 PM39.9 °F28.9 °F65 %30.13 in10.0 miWSW (240°)13.8 mph23.0 mphMostly Cloudy
8:53 PM41.0 °F27.0 °F57 %30.13 in10.0 miWest (270°)15.0 mph31.1 mphOvercast
9:53 PM41.0 °F26.1 °F55 %30.12 in10.0 miWSW (250°)12.7 mph18.4 mphOvercast
10:53 PM39.9 °F27.0 °F60 %30.12 in10.0 miWest (270°)8.1 mphOvercast
11:53 PM39.9 °F27.0 °F60 %30.12 in10.0 miWNW (290°)3.5 mphOvercast
Hourly data recorded from KHLN, located miles away from Fort Harrison, Montana







STORIES FROM OUR PARTNERS